Location: Stendal
(52.5994°N, 11.8400°E)
Time: 09:38:23
(UTC+01:00)

X-37B - Visible Passes

Search period start: 21 January 2021 00:00
Search period end: 31 January 2021 00:00
Orbit: 384 x 390 km, 45.0° (Epoch: 02 January)

Date Brightness Start Highest point End Pass type
(mag) Time Alt. Az. Time Alt. Az. Time Alt. Az.
21 Jan 3.2 19:08:43 10° SSW 19:09:46 15° SSW 19:09:46 15° SSW visible
22 Jan 3.0 18:10:56 10° SSW 18:12:41 14° SSE 18:13:59 12° SE visible
22 Jan 3.9 19:46:07 10° SW 19:46:16 11° SW 19:46:16 11° SW visible
23 Jan 2.5 18:47:56 10° SW 18:50:20 20° S 18:50:28 20° S visible
24 Jan 2.8 17:49:52 10° SSW 17:52:04 17° SSE 17:54:17 10° ESE visible
24 Jan 3.1 19:25:36 10° SW 19:26:56 17° SW 19:26:56 17° SW visible
25 Jan 2.6 18:27:17 10° SW 18:29:47 21° S 18:31:09 16° SE visible
26 Jan 2.8 17:29:05 10° SW 17:31:30 20° S 17:33:55 10° ESE visible
26 Jan 2.8 19:05:10 10° WSW 19:07:30 19° S 19:07:40 18° S visible
27 Jan 2.8 18:06:45 10° SW 18:09:13 21° S 18:11:42 10° SE visible
27 Jan 3.7 19:43:51 10° SW 19:44:15 11° SW 19:44:15 11° SW visible
28 Jan 3.2 18:44:55 10° SW 18:46:54 15° SSW 18:48:37 11° SSE visible
29 Jan 3.1 17:46:20 10° WSW 17:48:39 18° S 17:50:58 10° SE visible
30 Jan 3.5 18:25:02 10° SW 18:26:17 12° SSW 18:27:32 10° S visible
